Location: Unspecified
(44.4377°N, 88.0525°W)
Time: 07:07:17
(UTC-05:00)

Cosmos 1674 - Visible Passes

Search period start: 21 April 2019 00:00
Search period end: 01 May 2019 00:00
Orbit: 497 x 519 km, 82.5° (Epoch: 20 April)

Date Brightness Start Highest point End Pass type
(mag) Time Alt. Az. Time Alt. Az. Time Alt. Az.
24 Apr 4.4 05:14:26 10° SSE 05:17:55 37° E 05:21:27 10° NNE visible
25 Apr 4.9 04:57:12 10° SSE 05:00:28 28° E 05:03:47 10° NNE visible
26 Apr 5.2 04:40:04 10° SE 04:43:03 22° E 04:46:03 10° NE visible
27 Apr 5.5 04:23:04 10° SE 04:25:38 18° E 04:28:13 10° NE visible
28 Apr 5.7 04:06:15 10° ESE 04:08:14 14° E 04:10:13 10° NE visible
29 Apr 5.9 03:49:57 10° E 03:50:50 11° E 03:51:43 10° ENE visible
30 Apr 2.7 05:04:32 10° SSW 05:08:19 74° W 05:12:11 10° N visible
